User: anonymous   Login
Location: Unspecified
(22.6800°N, 112.2000°E)
Time: 16:52:15
(UTC+08:00)
Language:

Courier 1B - Orbit

View from above orbital plane
View from above orbital plane
View from above satellite
View from above satellite

Ground track
Ground track

The orbit data is extracted from the following two-line orbital elements,

1 00058U 60013A   21204.72318173  .00000086  00000-0 -80177-6 0  9998
2 00058  28.3253 218.8798 0165069 151.3946 209.5768 13.46327710992738
Epoch (UTC): 23 July 2021 17:21:22
Eccentricity: 0.0165069
inclination: 28.3253°
perigee height: 962 km
apogee height: 1209 km
right ascension of ascending node: 218.8798°
argument of perigee: 151.3946°
revolutions per day: 13.46327710
mean anomaly at epoch: 209.5768°
orbit number at epoch: 99273

The dashed part of the orbit path shows where the satellite is in the earth's shadow,  

DLR